Location: Mohawk View
(42.7837°N, 73.7885°W)
Time: 16:55:37
(UTC+00:00)

Cosmos 1782 - Pass Details

Date: 17 June 2021
Orbit: 537 x 550 km, 82.5° (Epoch: 01 August)

Event Time Altitude Azimuth Distance (km) Brightness Sun altitude
Rises 07:16:32 0° 1° (N) 2,715 7.4 -16.3°
Reaches altitude 10° 07:18:52 10° 11° (N) 1,820 6.5 -16.1°
Maximum altitude 07:22:29 33° 76° (ENE) 942 4.5 -15.7°
Drops below altitude 10° 07:26:06 10° 141° (SE) 1,814 5.3 -15.4°
Enters shadow 07:27:59 - 150° (SSE) 2,532 6.0 -15.2°
